Torna al catalogo

STARLINK-36301

AttivoComunicazioniVLEO
NORAD 67932·PAYLOAD·🇺🇸 United States

Lanciato Feb 24, 2026 da Vandenberg Space Force Base

Loading…

Prossimi Passaggi (prossime 24 ore)

TLE

AggiornatoSource: CelesTrak SupGP

Epoca: Sep 14, 2026, 22:57 UTC

1 67932C 26037A   26257.95673611 -.00014996  00000+0 -54321-3 0  2570
2 67932  43.0032 202.2698 0001466 264.0525  26.3451 15.27582539    10

Traccia STARLINK-36301 in tempo reale con AllMySat

Download on the App Store